sat.trackr.live / text

‹ back to catalog

TIANQI-20

NORAD 64061 · 2025-105D

PAYLOAD ACTIVE UNKNOWN

§ Identity

Operator
Country
PRC
Launch date
2025-05-19
Launch site
YSLA
Launch vehicle
Mass (kg)
RCS (m²)

External: N2YO · Heavens-Above · Gunter

§ Orbital elements

Epoch: 2026-09-21T16:50:01.701312Z

Period
102.92 min
Inclination
44.9863°
Eccentricity
0.0008503
Mean motion
13.99165455 rev/d
Perigee alt
890.5 km
Apogee alt
902.9 km
Semi-major
7,274.8 km
B*
8.7959e-5
RAAN
312.6478°
Arg perigee
128.6084°
Mean anomaly
231.5511°
Rev number
6,872

§ Raw data

TIANQI-201 64061U 25105D   26264.70140858  .00000000  00000+0  87959-4 0  99942 64061  44.9863 312.6478 0008503 128.6084 231.5511 13.99165455 68728

JSON: /api/v1/satellites/64061 · /tle

For live sub-satellite position, see the globe view (requires WebGL).

§ Visibility from observer

Set your observer location to see the next 7 days of passes ≥ 10°. The values pass through the URL so the page stays shareable.

No JS? Fill the form by hand. The geolocation button needs JavaScript.